Weather History for KF46 - November, 2013

Change the Weather History Date:

Saturday, November 30, 2013

  Actual Average (KDFW) Record (KDFW)
Temperature  
Mean Temperature 52 °F 51 °F  
Max Temperature 65 °F 61 °F 84 °F (1950)
Min Temperature 39 °F 41 °F 21 °F (1911)
Degree Days  
Heating Degree Days 13 14  
Month to date heating degree days 281  
Since 1 July heating degree days 354  
Cooling Degree Days 0 0  
Month to date cooling degree days 29  
Year to date cooling degree days 2752  
Growing Degree Days 2 (Base 50)    
Moisture  
Dew Point 43 °F    
Average Humidity 72    
Maximum Humidity 94    
Minimum Humidity 47    
Precipitation  
Precipitation 0.00 in 0.08 in 0.87 in (1921)
Month to date precipitation 2.71  
Year to date precipitation 33.59  
Snow  
Snow 0.00 in 0.00 in T in (2006)
Month to date snowfall T  
Since 1 July snowfall T  
Since 1 September snowfall T  
Snow Depth -    
Sea Level Pressure  
Sea Level Pressure 30.26 in    
Wind  
Wind Speed 9 mph (South)    
Max Wind Speed 17 mph    
Max Gust Speed 23 mph    
Visibility 10 miles    
Events      
T = Trace of Precipitation, MM = Missing Value Source: NWS Daily Summary

Daily Weather History Graph

Daily Weather History Graph

Search for Another Location

Airport or City:

Trip Planner

Search our weather history database for the weather conditions in past years. The results will help you decide how hot, cold, wet, or windy it might be!

Date:

Astronomy

Nov. 30, 2013 Rise Set
Actual Time 7:09 AM CST 5:19 PM CST
Civil Twilight 6:42 AM CST 5:45 PM CST
Nautical Twilight 6:12 AM CST 6:16 PM CST
Astronomical Twilight 5:42 AM CST 6:46 PM CST
Moon 4:29 AM CST (11/30) 3:38 PM CST (11/30)
Length of Visible Light 11h 03m
Length of Day
10h 09m
Waning Crescent, 7% of the Moon is Illuminated
Nov 30
Waning Crescent
Dec 2
New
Dec 9
First Quarter
Dec 17
Full
Dec 25
Last Quarter

Hourly Weather History & Observations

Time (CST) Temp. Windchill Dew Point Humidity Pressure Visibility Wind Dir Wind Speed Gust Speed Precip Events Conditions
12:15 AM 43.9 °F 39.3 °F 33.8 °F 68% 30.34 in 10.0 mi SSE 8.1 mph - N/A   Clear
12:35 AM 43.9 °F 39.9 °F 33.4 °F 67% 30.34 in 10.0 mi SSE 6.9 mph - N/A   Clear
12:55 AM 43.7 °F 40.3 °F 33.4 °F 67% 30.34 in 10.0 mi SSE 5.8 mph - N/A   Clear
1:15 AM 42.8 °F 38.6 °F 33.3 °F 69% 30.34 in 10.0 mi SSE 6.9 mph - N/A   Clear
1:35 AM 42.1 °F 38.4 °F 33.3 °F 71% 30.33 in 10.0 mi SSE 5.8 mph - N/A   Clear
1:55 AM 41.4 °F 37.6 °F 33.3 °F 73% 30.33 in 10.0 mi South 5.8 mph - N/A   Clear
2:15 AM 39.6 °F 36.3 °F 33.1 °F 78% 30.34 in 10.0 mi South 4.6 mph - N/A   Clear
2:35 AM 39.2 °F 35.9 °F 32.9 °F 78% 30.33 in 10.0 mi South 4.6 mph - N/A   Clear
2:55 AM 40.3 °F 37.1 °F 33.3 °F 76% 30.33 in 10.0 mi SSE 4.6 mph - N/A   Clear
3:15 AM 40.8 °F 36.9 °F 33.3 °F 74% 30.32 in 10.0 mi SSE 5.8 mph - N/A   Clear
3:35 AM 39.6 °F 35.4 °F 33.3 °F 78% 30.32 in 10.0 mi South 5.8 mph - N/A   Clear
3:55 AM 39.4 °F 35.2 °F 33.3 °F 79% 30.33 in 10.0 mi South 5.8 mph - N/A   Clear
4:15 AM 39.7 °F 35.6 °F 33.6 °F 79% 30.32 in 10.0 mi SSE 5.8 mph - N/A   Clear
4:35 AM 39.6 °F 35.4 °F 33.6 °F 79% 30.32 in 10.0 mi SSE 5.8 mph - N/A   Clear
4:55 AM 39.6 °F 34.7 °F 33.8 °F 80% 30.32 in 10.0 mi South 6.9 mph - N/A   Clear
5:15 AM 39.6 °F 34.0 °F 34.0 °F 80% 30.32 in 10.0 mi South 8.1 mph - N/A   Clear
5:35 AM 40.1 °F 34.7 °F 34.2 °F 79% 30.32 in 10.0 mi South 8.1 mph - N/A   Clear
5:55 AM 40.6 °F 35.4 °F 34.7 °F 79% 30.32 in 10.0 mi South 8.1 mph - N/A   Clear
6:15 AM 40.3 °F 35.5 °F 34.7 °F 80% 30.32 in 10.0 mi South 6.9 mph - N/A   Clear
6:35 AM 40.1 °F 35.3 °F 35.1 °F 82% 30.32 in 10.0 mi South 6.9 mph - N/A   Clear
6:55 AM 39.6 °F 34.7 °F 35.2 °F 85% 30.33 in 10.0 mi South 6.9 mph - N/A   Clear
7:15 AM 41.9 °F 36.3 °F 36.5 °F 81% 30.34 in 10.0 mi South 9.2 mph - N/A   Clear
7:35 AM 43.0 °F 36.8 °F 36.7 °F 78% 30.34 in 10.0 mi South 11.5 mph - N/A   Clear
7:55 AM 44.1 °F 38.6 °F 37.4 °F 77% 30.34 in 10.0 mi South 10.4 mph - N/A   Scattered Clouds
8:15 AM 45.9 °F 40.8 °F 37.9 °F 74% 30.34 in 10.0 mi South 10.4 mph - N/A   Scattered Clouds
8:35 AM 47.5 °F - 38.5 °F 71% 30.34 in 10.0 mi South 10.4 mph - N/A   Clear
8:55 AM 48.7 °F - 39.0 °F 69% 30.34 in 10.0 mi SSW 10.4 mph - N/A   Clear
9:15 AM 50.5 °F - 39.2 °F 65% 30.34 in 10.0 mi South 15.0 mph - N/A   Clear
9:35 AM 52.7 °F - 39.2 °F 60% 30.35 in 10.0 mi South 13.8 mph 18.4 mph N/A   Mostly Cloudy
9:55 AM 53.8 °F - 39.4 °F 58% 30.35 in 10.0 mi SSW 11.5 mph - N/A   Overcast
10:15 AM 54.9 °F - 39.9 °F 57% 30.35 in 10.0 mi SSW 9.2 mph 17.3 mph N/A   Mostly Cloudy
10:35 AM 56.7 °F - 39.7 °F 53% 30.34 in 10.0 mi SSW 9.2 mph 17.3 mph N/A   Mostly Cloudy
10:55 AM 58.1 °F - 39.7 °F 50% 30.33 in 10.0 mi SSW 15.0 mph - N/A   Overcast
11:15 AM 57.6 °F - 38.5 °F 49% 30.33 in 10.0 mi South 15.0 mph - N/A   Overcast
11:35 AM 59.4 °F - 39.2 °F 47% 30.31 in 10.0 mi SSW 12.7 mph - N/A   Overcast
11:55 AM 60.4 °F - 41.5 °F 50% 30.29 in 10.0 mi SSW 13.8 mph 19.6 mph N/A   Overcast
12:15 PM 61.0 °F - 45.0 °F 56% 30.28 in 10.0 mi SSW 16.1 mph 21.9 mph N/A   Overcast
12:35 PM 60.8 °F - 45.0 °F 56% 30.27 in 10.0 mi South 16.1 mph 20.7 mph N/A   Overcast
12:55 PM 61.5 °F - 46.0 °F 57% 30.26 in 10.0 mi South 17.3 mph 23.0 mph N/A   Mostly Cloudy
1:15 PM 62.8 °F - 46.9 °F 56% 30.25 in 10.0 mi South 17.3 mph - N/A   Scattered Clouds
1:35 PM 63.5 °F - 47.8 °F 57% 30.23 in 10.0 mi SSW 16.1 mph 21.9 mph N/A   Scattered Clouds
1:55 PM 65.1 °F - 48.4 °F 55% 30.22 in 10.0 mi SSW 12.7 mph 18.4 mph N/A   Clear
2:15 PM 65.1 °F - 48.6 °F 55% 30.21 in 10.0 mi SSW 17.3 mph 23.0 mph N/A   Clear
2:35 PM 64.6 °F - 48.9 °F 57% 30.21 in 10.0 mi SSW 13.8 mph 19.6 mph N/A   Mostly Cloudy
2:55 PM 64.4 °F - 50.2 °F 60% 30.19 in 10.0 mi SSW 11.5 mph 18.4 mph N/A   Overcast
3:15 PM 64.4 °F - 50.5 °F 61% 30.19 in 10.0 mi SSW 15.0 mph 19.6 mph N/A   Overcast
3:35 PM 64.2 °F - 50.9 °F 62% 30.18 in 10.0 mi SSW 16.1 mph - N/A   Overcast
3:55 PM 63.7 °F - 50.9 °F 63% 30.18 in 10.0 mi SSW 15.0 mph 20.7 mph N/A   Overcast
4:15 PM 63.5 °F - 50.9 °F 63% 30.17 in 10.0 mi SSW 16.1 mph 19.6 mph N/A   Overcast
4:35 PM 63.0 °F - 50.7 °F 64% 30.17 in 10.0 mi South 11.5 mph 21.9 mph N/A   Overcast
4:55 PM 62.6 °F - 50.9 °F 66% 30.17 in 10.0 mi South 12.7 mph 21.9 mph N/A   Mostly Cloudy
5:15 PM 60.6 °F - 50.7 °F 70% 30.16 in 10.0 mi SSE 10.4 mph - N/A   Scattered Clouds
5:35 PM 59.4 °F - 50.5 °F 73% 30.15 in 10.0 mi SSE 9.2 mph - N/A   Clear
5:55 PM 58.3 °F - 50.7 °F 76% 30.16 in 10.0 mi South 9.2 mph - N/A   Clear
6:15 PM 58.1 °F - 51.1 °F 77% 30.16 in 10.0 mi South 9.2 mph - N/A   Clear
6:35 PM 57.7 °F - 51.4 °F 79% 30.16 in 10.0 mi South 11.5 mph - N/A   Clear
6:55 PM 57.2 °F - 51.4 °F 81% 30.17 in 10.0 mi South 10.4 mph - N/A   Clear
7:15 PM 58.1 °F - 51.1 °F 77% 30.16 in 10.0 mi South 16.1 mph 21.9 mph N/A   Clear
7:35 PM 56.8 °F - 50.9 °F 80% 30.17 in 10.0 mi South 10.4 mph - N/A   Scattered Clouds
7:55 PM 55.6 °F - 50.4 °F 83% 30.16 in 10.0 mi South 9.2 mph - N/A   Scattered Clouds
8:15 PM 54.7 °F - 50.2 °F 85% 30.17 in 10.0 mi South 8.1 mph - N/A   Clear
8:35 PM 54.5 °F - 50.0 °F 85% 30.16 in 10.0 mi South 9.2 mph - N/A   Clear
8:55 PM 52.5 °F - 49.1 °F 88% 30.17 in 10.0 mi South 5.8 mph - N/A   Clear
9:15 PM 52.0 °F - 49.1 °F 90% 30.16 in 10.0 mi South 3.5 mph - N/A   Clear
9:35 PM 52.2 °F - 49.5 °F 91% 30.16 in 10.0 mi South 3.5 mph - N/A   Clear
9:55 PM 51.3 °F - 48.9 °F 92% 30.17 in 10.0 mi South 4.6 mph - N/A   Clear
10:15 PM 50.7 °F - 48.2 °F 91% 30.17 in 10.0 mi SSE 3.5 mph - N/A   Clear
10:35 PM 50.7 °F - 48.2 °F 91% 30.17 in 10.0 mi SSE 3.5 mph - N/A   Clear
10:55 PM 50.9 °F - 48.2 °F 90% 30.18 in 10.0 mi SE 3.5 mph - N/A   Scattered Clouds
11:15 PM 49.6 °F - 47.8 °F 94% 30.17 in 10.0 mi SSE 3.5 mph - N/A   Mostly Cloudy
11:35 PM 50.9 °F - 48.2 °F 90% 30.17 in 10.0 mi SSE 4.6 mph - N/A   Scattered Clouds
11:55 PM 50.5 °F - 48.2 °F 92% 30.16 in 10.0 mi SSE 4.6 mph - N/A   Clear